星链-35232 (STARLINK-35232)

导读 | 豆包AI

STARLINK-35232是美国太空探索技术公司(SpaceX)星链(Starlink)星座组网卫星,于2025年9月5日自美国发射升空,为星链低轨互联网星座的组成部分,主要用于提供全球覆盖的高速宽带互联网服务,尤其可支持偏远地区网络接入、移动场景联网等需求,进一步完善星链星座的全球服务能力。

基本信息
目录编号:
65518
目录名称:
STARLINK-35232
国际标识:
2025-198AC
轨道中心:
EARTH
卫星名称:
星链-35232
卫星全名:
星链-35232 (STARLINK-35232)
卫星状态:
在轨 (已飞行211 天)
发射日期:
2025-09-05 UTC
国别 :
美国 (US)
星等 :
--
轨道信息
数据来源 国际轨道数据
星历时间: 2026-04-03T21:48:15+0800
19小时前
查看轨道信息
半长轴: 6853.455km
偏心率: 0.0001186
轨道倾角: 53.159°
近地点辐角 104.189°
升交点赤经 155.153°
平近点角 255.924°
近地点: 474.505km
远地点: 476.131km
周期: 94.107分钟
每日圈数: 15.301658
详细信息
固有亮度:
5
最大亮度:
2.5
卫星平台:
Starlink V1.0
覆盖范围:
全球
运营商:
太空探索技术公司
运营商所在国:
美国
制造商(研发单位):
太空探索技术公司
制造商所在国:
美国
使用方式:
暂无
卫星简介
Starlink 计划是 SpaceX 推出的全球卫星互联网项目,通过发射低轨道卫星,为全球尤其是偏远地区提供高速、低延迟的互联网服务。自 2019 年起,Starlink 已部署数千颗卫星,旨在缩小全球数字鸿沟,推动互联网普及。该项目还为军事、航空等行业提供通信支持,带来广泛经济效益。
2D轨道图
3D轨道图
轨道高度分析图
轨道倾角分析图
轨道综合分析图
查看轨道综合分析图